Location: Newark
(50.1751°N, 5.6239°W)
Time: 14:36:37
(UTC+00:00)

Nauka - Pass Details

Date: 24 September 2021
Orbit: 418 x 423 km, 51.6° (Epoch: 15 October)

Event Time Altitude Azimuth Distance (km) Brightness Sun altitude
Rises 18:51:03 0° 255° (WSW) 2,360 ? -6.5°
Reaches altitude 10° 18:53:08 10° 256° (WSW) 1,498 ? -6.8°
Maximum altitude 18:56:30 86° 345° (NNW) 425 ? -7.3°
Drops below altitude 10° 18:59:53 10° 75° (ENE) 1,505 ? -7.9°
Enters shadow 19:00:04 - 75° (ENE) 1,578 ? -7.9°
